FW8917 Weather Reports


time (UTC)temp
C
wind
direction
speed
KPH
gust
KPH
rain 1hr
cm
rain 24hr
cm
rain mn
cm
humidity
%
barometer
mb
20260507142607 23 119 0.0 1.6 0.00 0.00 0.00 31 1015.1
20260507142105 22 114 0.0 1.6 0.00 0.00 0.00 31 1015.6
20260507141601 22 131 0.0 1.6 0.00 0.00 0.00 31 1015.5
20260507141057 22 160 1.6 1.6 0.00 0.00 0.00 31 1015.4
20260507140554 21 168 0.0 0.0 0.00 0.00 0.00 33 1015.2
20260507140051 21 146 0.0 0.0 0.00 0.00 0.00 32 1015.4
20260507135548 21 150 0.0 0.0 0.00 0.00 0.00 32 1015.2
20260507135046 20 140 0.0 0.0 0.00 0.00 0.00 35 1015.2
20260507134542 19 153 0.0 0.0 0.00 0.00 0.00 36 1015.1
20260507134038 18 148 0.0 0.0 0.00 0.00 0.00 37 1015.0
20260507133534 18 155 0.0 0.0 0.00 0.00 0.00 38 1015.1
20260507133032 18 153 0.0 0.0 0.00 0.00 0.00 38 1014.9
20260507132528 18 140 0.0 0.0 0.00 0.00 0.00 37 1015.0
20260507132025 17 148 0.0 0.0 0.00 0.00 0.00 38 1015.0
20260507131522 17 146 0.0 0.0 0.00 0.00 0.00 38 1015.0
20260507131019 17 155 0.0 0.0 0.00 0.00 0.00 39 1015.0
20260507130516 17 148 0.0 0.0 0.00 0.00 0.00 39 1014.9
20260507130014 17 160 0.0 0.0 0.00 0.00 0.00 39 1014.9
20260507125512 16 149 0.0 0.0 0.00 0.00 0.00 40 1014.8
20260507125011 16 154 0.0 0.0 0.00 0.00 0.00 41 1014.7
20260507124506 16 149 0.0 0.0 0.00 0.00 0.00 41 1014.8
20260507124004 16 149 0.0 0.0 0.00 0.00 0.00 41 1014.6
20260507123501 16 154 0.0 0.0 0.00 0.00 0.00 41 1014.7
20260507122957 16 154 0.0 0.0 0.00 0.00 0.00 39 1014.8
20260507122453 17 160 0.0 0.0 0.00 0.00 0.00 38 1014.7
20260507121949 17 146 0.0 0.0 0.00 0.00 0.00 38 1014.6
20260507121445 17 143 0.0 0.0 0.00 0.00 0.00 37 1014.7
20260507120941 17 158 0.0 0.0 0.00 0.00 0.00 37 1014.9
20260507120438 17 148 0.0 0.0 0.00 0.00 0.00 38 1014.8
20260507115935 17 144 0.0 0.0 0.00 0.00 0.00 37 1014.8
20260507115430 17 141 0.0 0.0 0.00 0.00 0.00 37 1014.7
20260507114927 17 151 0.0 0.0 0.00 0.00 0.00 38 1014.9
20260507114423 17 152 0.0 0.0 0.00 0.00 0.00 37 1015.1
20260507113920 17 155 0.0 0.0 0.00 0.00 0.00 36 1014.9
20260507113417 17 158 0.0 0.0 0.00 0.00 0.00 36 1014.8
20260507112914 17 155 0.0 0.0 0.00 0.00 0.00 36 1014.9
20260507112412 17 151 0.0 0.0 0.00 0.00 0.00 36 1015.0
20260507111909 17 155 0.0 0.0 0.00 0.00 0.00 36 1015.0
20260507111406 18 155 0.0 0.0 0.00 0.00 0.00 35 1014.9
20260507110902 18 140 0.0 0.0 0.00 0.00 0.00 34 1014.8
20260507110358 18 125 0.0 1.6 0.00 0.00 0.00 35 1015.1
20260507105855 17 157 0.0 0.0 0.00 0.00 0.00 35 1015.3
20260507105352 17 154 0.0 0.0 0.00 0.00 0.00 36 1015.1
20260507104849 17 146 0.0 0.0 0.00 0.00 0.00 36 1015.2
20260507104345 17 145 0.0 0.0 0.00 0.00 0.00 37 1015.2
20260507103841 17 146 0.0 0.0 0.00 0.00 0.00 39 1015.2
20260507103338 17 147 0.0 0.0 0.00 0.00 0.00 40 1015.2
20260507102835 17 151 0.0 0.0 0.00 0.00 0.00 38 1015.2
20260507102331 17 146 0.0 0.0 0.00 0.00 0.00 38 1015.1
20260507101828 17 120 0.0 0.0 0.00 0.00 0.00 38 1015.2
20260507101327 17 116 0.0 0.0 0.00 0.00 0.00 38 1015.1
20260507100825 17 121 0.0 0.0 0.00 0.00 0.00 37 1015.1
20260507100323 17 110 0.0 0.0 0.00 0.00 0.00 39 1015.1
20260507095821 17 103 0.0 0.0 0.00 0.00 0.00 38 1015.2
20260507095317 17 103 0.0 0.0 0.00 0.00 0.00 38 1015.2
20260507094814 17 102 0.0 0.0 0.00 0.00 0.00 38 1015.2
20260507094311 18 114 0.0 1.6 0.00 0.00 0.00 38 1015.3
20260507093808 18 213 0.0 1.6 0.00 0.00 0.00 39 1015.3
20260507093306 17 216 1.6 1.6 0.00 0.00 0.00 39 1015.1
20260507092804 17 198 1.6 1.6 0.00 0.00 0.00 40 1015.2
20260507092300 18 167 0.0 1.6 0.00 0.00 0.00 41 1015.1
20260507091756 18 156 0.0 0.0 0.00 0.00 0.00 38 1015.3
20260507091253 18 168 0.0 0.0 0.00 0.00 0.00 37 1015.3
20260507090753 18 170 0.0 0.0 0.00 0.00 0.00 37 1015.3
20260507090250 18 172 0.0 0.0 0.00 0.00 0.00 36 1015.4
20260507085747 17 168 0.0 0.0 0.00 0.00 0.00 40 1015.4
20260507085244 17 165 0.0 0.0 0.00 0.00 0.00 37 1015.2
20260507084742 18 165 0.0 0.0 0.00 0.00 0.00 35 1015.3
20260507084238 18 165 0.0 0.0 0.00 0.00 0.00 34 1015.2
20260507083735 18 160 0.0 0.0 0.00 0.00 0.00 35 1015.3
20260507083232 18 159 0.0 0.0 0.00 0.00 0.00 36 1015.3
20260507082728 18 170 0.0 0.0 0.00 0.00 0.00 35 1015.5
20260507082224 18 170 0.0 0.0 0.00 0.00 0.00 34 1015.4
20260507081721 18 171 0.0 0.0 0.00 0.00 0.00 34 1015.4
20260507081217 18 170 0.0 0.0 0.00 0.00 0.00 34 1015.5
20260507080714 18 165 0.0 0.0 0.00 0.00 0.00 35 1015.8
20260507080210 18 160 0.0 0.0 0.00 0.00 0.00 36 1015.7
20260507075705 18 160 0.0 0.0 0.00 0.00 0.00 36 1015.6
20260507075202 18 153 0.0 0.0 0.00 0.00 0.00 39 1015.7
20260507074658 18 158 0.0 0.0 0.00 0.00 0.00 40 1015.6
20260507074157 18 146 0.0 0.0 0.00 0.00 0.00 39 1015.7
20260507073653 18 158 0.0 0.0 0.00 0.00 0.00 39 1015.6
20260507073149 17 155 0.0 0.0 0.00 0.00 0.00 43 1015.8
20260507072647 18 170 0.0 0.0 0.00 0.00 0.00 39 1015.7
20260507072144 18 170 0.0 0.0 0.00 0.00 0.00 38 1015.6
20260507071642 18 160 0.0 0.0 0.00 0.00 0.00 38 1015.4
20260507071138 18 160 0.0 0.0 0.00 0.00 0.00 39 1015.5
20260507070635 18 160 0.0 0.0 0.00 0.00 0.00 39 1015.7
20260507070132 18 147 0.0 0.0 0.00 0.00 0.00 41 1015.7
20260507065628 18 156 0.0 0.0 0.00 0.00 0.00 39 1015.8
20260507065125 18 170 0.0 0.0 0.00 0.00 0.00 40 1015.8
20260507064623 18 170 0.0 0.0 0.00 0.00 0.00 38 1015.8
20260507064121 18 170 0.0 0.0 0.00 0.00 0.00 35 1015.5
20260507063618 19 170 0.0 0.0 0.00 0.00 0.00 35 1015.6
20260507063115 20 170 0.0 0.0 0.00 0.00 0.00 35 1015.7
20260507062612 20 170 0.0 0.0 0.00 0.00 0.00 35 1015.8
20260507062110 20 180 0.0 0.0 0.00 0.00 0.00 32 1015.7
20260507061607 20 168 0.0 0.0 0.00 0.00 0.00 33 1015.7
20260507061105 20 175 0.0 0.0 0.00 0.00 0.00 34 1015.7
20260507060603 20 164 0.0 0.0 0.00 0.00 0.00 34 1015.4
20260507060059 20 164 0.0 0.0 0.00 0.00 0.00 34 1015.5
20260507055554 20 160 0.0 0.0 0.00 0.00 0.00 34 1015.6
20260507055051 20 154 0.0 0.0 0.00 0.00 0.00 33 1015.6
20260507054547 21 170 0.0 0.0 0.00 0.00 0.00 32 1015.5
20260507054044 21 170 0.0 0.0 0.00 0.00 0.00 32 1015.5
20260507053542 21 171 0.0 0.0 0.00 0.00 0.00 33 1015.7
20260507053040 21 170 0.0 0.0 0.00 0.00 0.00 34 1015.7
20260507052538 21 170 0.0 0.0 0.00 0.00 0.00 34 1015.6
20260507052034 21 181 1.6 1.6 0.00 0.00 0.00 33 1015.5
20260507051532 21 175 0.0 0.0 0.00 0.00 0.00 33 1015.6
20260507051029 21 172 0.0 0.0 0.00 0.00 0.00 33 1015.4
20260507050525 21 170 0.0 0.0 0.00 0.00 0.00 33 1015.7
20260507050022 21 172 0.0 0.0 0.00 0.00 0.00 32 1015.4
20260507045518 21 170 0.0 0.0 0.00 0.00 0.00 33 1015.5
20260507045016 21 170 0.0 0.0 0.00 0.00 0.00 33 1015.3
20260507044512 22 169 0.0 0.0 0.00 0.00 0.00 33 1015.3
20260507044009 22 174 0.0 0.0 0.00 0.00 0.00 32 1015.3
20260507043505 21 185 0.0 1.6 0.00 0.00 0.00 33 1015.2
20260507043002 21 172 0.0 0.0 0.00 0.00 0.00 34 1015.2
20260507042458 21 159 0.0 0.0 0.00 0.00 0.00 34 1015.1
20260507041954 22 168 0.0 0.0 0.00 0.00 0.00 35 1015.0
20260507041451 22 168 0.0 0.0 0.00 0.00 0.00 34 1015.1
20260507040948 22 172 1.6 1.6 0.00 0.00 0.00 34 1015.2
20260507040443 22 198 0.0 1.6 0.00 0.00 0.00 34 1015.1
20260507035940 22 165 0.0 1.6 0.00 0.00 0.00 34 1014.9
20260507035436 22 175 0.0 1.6 0.00 0.00 0.00 33 1014.8
20260507034933 22 167 0.0 0.0 0.00 0.00 0.00 32 1014.8
20260507034430 22 169 0.0 0.0 0.00 0.00 0.00 32 1014.7
20260507033928 23 163 0.0 0.0 0.00 0.00 0.00 32 1014.7
20260507033426 23 160 0.0 0.0 0.00 0.00 0.00 31 1014.7
20260507032922 23 166 0.0 0.0 0.00 0.00 0.00 32 1014.4
20260507032420 23 183 0.0 1.6 0.00 0.00 0.00 31 1014.4
20260507031915 24 167 0.0 0.0 0.00 0.00 0.00 30 1014.3
20260507031412 25 185 1.6 1.6 0.00 0.00 0.00 27 1014.0
20260507030909 25 166 0.0 0.0 0.00 0.00 0.00 28 1014.3
20260507030406 25 169 0.0 0.0 0.00 0.00 0.00 28 1014.1
20260507025903 25 174 0.0 1.6 0.00 0.00 0.00 28 1014.2
20260507025401 25 182 0.0 1.6 0.00 0.00 0.00 27 1014.1
20260507024858 25 173 0.0 1.6 0.00 0.00 0.00 27 1013.9
20260507024355 25 167 0.0 0.0 0.00 0.00 0.00 27 1013.7
20260507023851 25 169 0.0 0.0 0.00 0.00 0.00 27 1013.8
20260507023348 25 167 0.0 0.0 0.00 0.00 0.00 28 1014.0
20260507022845 26 152 0.0 0.0 0.00 0.00 0.00 28 1013.7
20260507022342 26 161 0.0 1.6 0.00 0.00 0.00 28 1014.2
20260507021838 26 194 0.0 1.6 0.00 0.00 0.00 27 1013.8
20260507021333 26 163 0.0 0.0 0.00 0.00 0.00 27 1013.8
20260507020831 26 193 0.0 1.6 0.00 0.00 0.00 27 1014.0
20260507020328 27 166 0.0 0.0 0.00 0.00 0.00 25 1013.7
20260507015825 27 201 0.0 0.0 0.00 0.00 0.00 24 1013.9
20260507015323 27 161 0.0 0.0 0.00 0.00 0.00 24 1013.7
20260507014820 27 136 1.6 1.6 0.00 0.00 0.00 24 1013.7
20260507014316 27 163 1.6 1.6 0.00 0.00 0.00 24 1013.8
20260507013812 28 173 0.0 1.6 0.00 0.00 0.00 25 1013.7
20260507013310 28 161 0.0 0.0 0.00 0.00 0.00 25 1013.5
20260507012807 29 159 0.0 0.0 0.00 0.00 0.00 24 1013.9
20260507012306 30 155 0.0 1.6 0.00 0.00 0.00 23 1013.4
20260507011800 30 162 0.0 0.0 0.00 0.00 0.00 24 1013.9
20260507011257 30 78 0.0 0.0 0.00 0.00 0.00 23 1013.5
20260507010756 30 160 0.0 1.6 0.00 0.00 0.00 21 1013.3
20260507010252 30 228 1.6 3.2 0.00 0.00 0.00 22 1013.7
20260507005750 30 194 0.0 0.0 0.00 0.00 0.00 20 1013.7
20260507005246 30 225 4.8 4.8 0.00 0.00 0.00 20 1013.5
20260507004743 30 175 1.6 1.6 0.00 0.00 0.00 19 1013.8
20260507004241 30 228 3.2 3.2 0.00 0.00 0.00 20 1013.7
20260507003736 30 188 1.6 3.2 0.00 0.00 0.00 20 1013.7
20260507003232 30 175 1.6 1.6 0.00 0.00 0.00 20 1013.5
20260507002728 31 242 3.2 3.2 0.00 0.00 0.00 20 1013.7
20260507002224 30 253 3.2 3.2 0.00 0.00 0.00 20 1013.9
20260507001721 30 221 0.0 1.6 0.00 0.00 0.00 20 1013.5
20260507001219 31 166 1.6 1.6 0.00 0.00 0.00 20 1013.7
20260507000715 31 102 0.0 1.6 0.00 0.00 0.00 20 1013.8
20260507000212 31 145 1.6 1.6 0.00 0.00 0.00 20 1013.5
20260506235708 31 160 1.6 3.2 0.00 0.00 0.00 19 1013.9
20260506235203 31 163 1.6 1.6 0.00 0.00 0.00 21 1013.8
20260506234700 31 145 1.6 3.2 0.00 0.00 0.00 20 1013.9
20260506234157 31 228 1.6 3.2 0.00 0.00 0.00 20 1013.8
20260506233655 31 102 1.6 3.2 0.00 0.00 0.00 20 1013.8
20260506233151 31 22 1.6 3.2 0.00 0.00 0.00 21 1013.8
20260506232648 30 219 3.2 3.2 0.00 0.00 0.00 21 1014.1
20260506232143 30 212 3.2 4.8 0.00 0.00 0.00 20 1013.8
20260506231640 30 279 4.8 8.0 0.00 0.00 0.00 20 1014.0
20260506231139 31 185 1.6 1.6 0.00 0.00 0.00 20 1014.2
20260506230635 31 103 1.6 1.6 0.00 0.00 0.00 21 1014.3
20260506230132 30 150 0.0 1.6 0.00 0.00 0.00 20 1014.2
20260506225628 31 196 1.6 1.6 0.00 0.00 0.00 21 1014.4
20260506225125 31 238 1.6 1.6 0.00 0.00 0.00 21 1014.4
20260506224622 31 172 0.0 1.6 0.00 0.00 0.00 22 1014.3
20260506224118 31 177 3.2 4.8 0.00 0.00 0.00 22 1014.4
20260506223615 31 173 0.0 1.6 0.00 0.00 0.00 22 1014.5
20260506223111 31 156 0.0 1.6 0.00 0.00 0.00 21 1014.5
20260506222608 31 174 3.2 3.2 0.00 0.00 0.00 20 1014.8
20260506222104 30 179 1.6 1.6 0.00 0.00 0.00 21 1014.6
20260506221602 29 183 0.0 1.6 0.00 0.00 0.00 22 1014.7
20260506221100 29 206 4.8 4.8 0.00 0.00 0.00 21 1014.9
20260506220556 30 231 6.4 8.0 0.00 0.00 0.00 21 1015.1
20260506220051 30 95 1.6 1.6 0.00 0.00 0.00 22 1014.9
20260506215548 30 164 3.2 3.2 0.00 0.00 0.00 22 1015.0
20260506215044 30 145 3.2 3.2 0.00 0.00 0.00 21 1015.3
20260506214541 30 210 1.6 1.6 0.00 0.00 0.00 20 1015.3
20260506214038 30 49 4.8 4.8 0.00 0.00 0.00 21 1015.5
20260506213536 30 148 1.6 1.6 0.00 0.00 0.00 22 1015.5
20260506213033 29 218 4.8 4.8 0.00 0.00 0.00 20 1015.7
20260506212530 30 218 3.2 3.2 0.00 0.00 0.00 20 1015.6
20260506212025 30 176 3.2 3.2 0.00 0.00 0.00 20 1015.6
20260506211521 30 185 3.2 3.2 0.00 0.00 0.00 20 1015.7
20260506211018 30 166 1.6 1.6 0.00 0.00 0.00 23 1015.8
20260506210515 30 136 1.6 1.6 0.00 0.00 0.00 24 1015.9
20260506210011 28 217 0.0 1.6 0.00 0.00 0.00 21 1015.9
20260506205508 28 199 1.6 3.2 0.00 0.00 0.00 23 1016.1
20260506205003 29 162 1.6 1.6 0.00 0.00 0.00 21 1016.2
20260506204502 28 178 1.6 1.6 0.00 0.00 0.00 21 1016.1
20260506203958 29 166 1.6 1.6 0.00 0.00 0.00 20 1016.3
20260506203456 29 214 1.6 1.6 0.00 0.00 0.00 21 1016.3
20260506202953 28 139 1.6 1.6 0.00 0.00 0.00 22 1016.4
20260506202450 27 201 0.0 1.6 0.00 0.00 0.00 21 1016.5
20260506201946 28 239 3.2 4.8 0.00 0.00 0.00 22 1016.1
20260506201444 28 224 3.2 4.8 0.00 0.00 0.00 20 1016.4
20260506200940 27 231 1.6 3.2 0.00 0.00 0.00 21 1016.5
20260506200437 27 193 4.8 8.0 0.00 0.00 0.00 20 1016.6
20260506195933 28 183 1.6 1.6 0.00 0.00 0.00 22 1016.6
20260506195430 28 156 1.6 3.2 0.00 0.00 0.00 23 1016.6
20260506194927 27 346 3.2 3.2 0.00 0.00 0.00 22 1016.6
20260506194424 27 188 1.6 1.6 0.00 0.00 0.00 23 1016.7
20260506193921 27 213 3.2 3.2 0.00 0.00 0.00 21 1017.0
20260506193418 27 159 0.0 0.0 0.00 0.00 0.00 22 1016.7
20260506192914 27 167 1.6 1.6 0.00 0.00 0.00 22 1017.1
20260506192411 27 195 1.6 3.2 0.00 0.00 0.00 22 1017.3
20260506191908 27 156 3.2 3.2 0.00 0.00 0.00 23 1017.0
20260506191404 28 106 1.6 1.6 0.00 0.00 0.00 23 1017.1
20260506190902 27 155 3.2 3.2 0.00 0.00 0.00 24 1017.3
20260506190358 27 153 1.6 1.6 0.00 0.00 0.00 24 1017.1
20260506185855 27 187 1.6 3.2 0.00 0.00 0.00 24 1017.0
20260506185352 27 125 1.6 3.2 0.00 0.00 0.00 24 1017.0
20260506184849 27 127 1.6 3.2 0.00 0.00 0.00 24 1017.5
20260506184346 27 50 1.6 3.2 0.00 0.00 0.00 25 1017.3
20260506183843 27 209 3.2 3.2 0.00 0.00 0.00 25 1017.5
20260506183338 27 167 0.0 0.0 0.00 0.00 0.00 25 1017.6
20260506182836 26 152 1.6 1.6 0.00 0.00 0.00 25 1018.0
20260506182333 26 158 1.6 1.6 0.00 0.00 0.00 27 1017.7
20260506181831 26 198 3.2 4.8 0.00 0.00 0.00 28 1017.8
20260506181329 25 192 1.6 1.6 0.00 0.00 0.00 28 1017.9
20260506180825 25 218 1.6 3.2 0.00 0.00 0.00 29 1017.9
20260506180321 25 178 0.0 1.6 0.00 0.00 0.00 28 1017.8
20260506175818 25 239 4.8 4.8 0.00 0.00 0.00 27 1017.9
20260506175315 25 204 1.6 3.2 0.00 0.00 0.00 28 1017.8
20260506174812 26 156 3.2 3.2 0.00 0.00 0.00 29 1017.9
20260506174309 25 118 3.2 3.2 0.00 0.00 0.00 29 1017.9
20260506173807 25 217 4.8 8.0 0.00 0.00 0.00 29 1017.9
20260506173303 25 146 1.6 3.2 0.00 0.00 0.00 30 1017.8
20260506172800 25 170 3.2 3.2 0.00 0.00 0.00 31 1017.8
20260506172257 25 167 1.6 1.6 0.00 0.00 0.00 31 1017.9
20260506171755 24 228 4.8 4.8 0.00 0.00 0.00 31 1017.9
20260506171251 24 206 4.8 4.8 0.00 0.00 0.00 31 1017.9
20260506170749 24 249 3.2 3.2 0.00 0.00 0.00 31 1017.8
20260506170245 23 254 1.6 1.6 0.00 0.00 0.00 32 1018.1
20260506165744 23 218 1.6 1.6 0.00 0.00 0.00 33 1017.6
20260506165241 23 258 1.6 3.2 0.00 0.00 0.00 32 1017.7
20260506164738 23 149 0.0 1.6 0.00 0.00 0.00 33 1017.8
20260506164235 23 168 1.6 1.6 0.00 0.00 0.00 36 1017.8
20260506163732 22 241 4.8 8.0 0.00 0.00 0.00 35 1017.9
20260506163226 23 224 3.2 4.8 0.00 0.00 0.00 36 1017.8
20260506162722 22 204 0.0 1.6 0.00 0.00 0.00 35 1017.7
20260506162220 22 126 0.0 1.6 0.00 0.00 0.00 36 1017.9
20260506161717 22 219 4.8 4.8 0.00 0.00 0.00 37 1017.8
20260506161215 22 137 0.0 1.6 0.00 0.00 0.00 37 1017.6
20260506160712 21 201 0.0 0.0 0.00 0.00 0.00 38 1017.8
20260506160208 21 119 3.2 3.2 0.00 0.00 0.00 39 1017.8
20260506155707 20 225 3.2 3.2 0.00 0.00 0.00 40 1017.6
20260506155204 20 201 1.6 1.6 0.00 0.00 0.00 41 1017.7
20260506153311 20 216 1.6 3.2 0.00 0.00 0.00 43 1017.9
20260506152808 20 141 1.6 3.2 0.00 0.00 0.00 42 1017.9
20260506152306 19 150 1.6 1.6 0.00 0.00 0.00 42 1017.7
20260506151804 18 141 1.6 1.6 0.00 0.00 0.00 42 1017.9
20260506151301 18 216 1.6 4.8 0.00 0.00 0.00 43 1018.0
20260506150757 18 182 1.6 3.2 0.00 0.00 0.00 43 1017.9
20260506150303 18 217 1.6 3.2 0.00 0.00 0.00 43 1017.8
20260506145751 17 248 3.2 3.2 0.00 0.00 0.00 44 1018.0
20260506145248 17 207 1.6 1.6 0.00 0.00 0.00 44 1017.7
20260506144745 17 208 4.8 4.8 0.00 0.00 0.00 45 1017.8
20260506144242 17 154 0.0 1.6 0.00 0.00 0.00 47 1017.5
20260506143740 16 226 3.2 3.2 0.00 0.00 0.00 46 1017.7
20260506143237 16 197 1.6 1.6 0.00 0.00 0.00 46 1017.7